Flagstaff, AZ

4:04 PM MST on September 25, 2017 (GMT -0700)
Flagstaff Pulliam

Weather History for KFLG - March, 2011

Change the Weather History Date:

Wednesday, March 30, 2011

  Actual Average Record
Temperature  
Mean Temperature 48 °F 40 °F  
Max Temperature 65 °F 54 °F 70 °F (1971)
Min Temperature 30 °F 25 °F 1 °F (1998)
Degree Days  
Heating Degree Days 17 26  
Month to date heating degree days 769 842  
Since 1 July heating degree days 5302 5681  
Cooling Degree Days 0 0  
Month to date cooling degree days 0 0  
Year to date cooling degree days 0 0  
Moisture  
Dew Point 23 °F    
Average Humidity 43    
Maximum Humidity 63    
Minimum Humidity 22    
Precipitation  
Precipitation 0.00 in 0.05 in 0.84 in (1970)
Month to date precipitation 0.95 2.07  
Year to date precipitation 4.26 6.28  
Snow  
Snow 0.00 in 0.40 in 8.90 in (1970)
Month to date snowfall 8.6 20.3  
Since 1 July snowfall 72.6 93.5  
Snow Depth 0.00 in    
Sea Level Pressure  
Sea Level Pressure 30.02 in    
Wind  
Wind Speed 4 mph (West)    
Max Wind Speed 13 mph    
Max Gust Speed 18 mph    
Visibility 10 miles    
Events      
T = Trace of Precipitation, MM = Missing Value Source: NWS Daily Summary

Daily Weather History Graph

Daily Weather History Graph

Search for Another Location

Airport or City:

Trip Planner

Search our weather history database for the weather conditions in past years. The results will help you decide how hot, cold, wet, or windy it might be!

Date:

Astronomy

Mar. 30, 2011 Rise Set
Actual Time 6:16 AM MST 6:46 PM MST
Civil Twilight 5:51 AM MST 7:11 PM MST
Nautical Twilight 5:21 AM MST 7:41 PM MST
Astronomical Twilight 4:50 AM MST 8:12 PM MST
Moon 4:04 AM MST (3/30) 3:35 PM MST (3/30)
Length of Visible Light 13h 20m
Length of Day
12h 29m
Waning Crescent, 13% of the Moon is Illuminated
Mar 30
Waning Crescent
Apr 3
New
Apr 11
First Quarter
Apr 17
Full
Apr 24
Last Quarter

Hourly Weather History & Observations

Time (MST) Temp. Windchill Dew Point Humidity Pressure Visibility Wind Dir Wind Speed Gust Speed Precip Events Conditions
12:57 AM 39.9 °F 37.8 °F 12.9 °F 33% 30.01 in 10.0 mi West 3.5 mph - N/A   Clear
1:57 AM 37.9 °F - 14.0 °F 38% 29.99 in 10.0 mi Calm Calm - N/A   Clear
2:57 AM 33.1 °F 30.0 °F 16.0 °F 50% 29.99 in 10.0 mi WSW 3.5 mph - N/A   Clear
3:57 AM 33.1 °F 30.0 °F 17.1 °F 52% 29.99 in 10.0 mi West 3.5 mph - N/A   Clear
4:57 AM 33.1 °F 30.0 °F 17.1 °F 52% 30.00 in 10.0 mi West 3.5 mph - N/A   Clear
5:57 AM 30.9 °F 27.5 °F 19.9 °F 64% 30.02 in 10.0 mi West 3.5 mph - N/A   Clear
6:57 AM 39.0 °F - 21.0 °F 49% 30.02 in 10.0 mi Calm Calm - N/A   Clear
7:57 AM 46.0 °F 43.9 °F 21.9 °F 39% 30.01 in 10.0 mi Variable 4.6 mph - N/A   Clear
8:57 AM 48.9 °F - 24.1 °F 38% 30.04 in 10.0 mi WNW 8.1 mph - N/A   Clear
9:57 AM 52.0 °F - 25.0 °F 35% 30.04 in 10.0 mi Variable 4.6 mph - N/A   Clear
10:57 AM 55.9 °F - 25.0 °F 30% 30.04 in 10.0 mi Variable 6.9 mph - N/A   Clear
11:57 AM 57.9 °F - 24.1 °F 27% 30.01 in 10.0 mi Variable 6.9 mph - N/A   Clear
12:57 PM 61.0 °F - 25.0 °F 25% 30.00 in 10.0 mi NE 10.4 mph - N/A   Clear
1:57 PM 60.1 °F - 24.1 °F 25% 30.01 in 10.0 mi WSW 4.6 mph - N/A   Clear
2:57 PM 64.9 °F - 25.0 °F 22% 29.99 in 10.0 mi Calm Calm - N/A   Clear
3:57 PM 64.0 °F - 24.1 °F 22% 29.98 in 10.0 mi East 6.9 mph - N/A   Clear
4:57 PM 64.9 °F - 25.0 °F 22% 29.99 in 10.0 mi Variable 5.8 mph - N/A   Clear
5:57 PM 62.1 °F - 24.1 °F 23% 30.01 in 10.0 mi Variable 5.8 mph - N/A   Clear
6:57 PM 55.0 °F - 26.1 °F 33% 30.05 in 10.0 mi East 9.2 mph - N/A   Clear
7:57 PM 52.0 °F - 28.0 °F 40% 30.06 in 10.0 mi Calm Calm - N/A   Clear
8:57 PM 48.9 °F - 28.0 °F 44% 30.08 in 10.0 mi WNW 3.5 mph - N/A   Clear
9:57 PM 45.0 °F - 28.9 °F 53% 30.08 in 10.0 mi Calm Calm - N/A   Partly Cloudy
10:57 PM 41.0 °F - 28.9 °F 62% 30.08 in 10.0 mi Calm Calm - N/A   Clear
11:57 PM 37.0 °F - 28.0 °F 70% 30.09 in 10.0 mi Calm Calm - N/A   Clear